Simultaneous Nadir Overpasses (SNOs) Predictions

Prediction of SNOs between GOES-16 and AQUA Satellite Orbit:

Table of predicted SNOs for the next 14.0 days since TLE Epoch: 6/12/2020
Index Date Time (GOES-16) GOES-16 Lat,Lon AQUA Lat,Lon Distance(km) Time Diff (sec)
1 06/14/2020 06:29:40 0.01, -75.17 -0.27, -73.86 149.02 80
2 06/14/2020 18:51:03 -0.01, -75.18 -0.85, -79.05 440.18 80
3 06/16/2020 06:17:29 0.00, -75.19 -0.93, -70.91 487.16 80
4 06/16/2020 18:38:52 -0.01, -75.20 -0.19, -76.10 101.87 80
5 06/18/2020 18:29:21 0.00, -75.23 0.42, -73.14 236.76 80
6 06/19/2020 06:50:36 -0.00, -75.23 0.66, -78.30 349.37 80
7 06/21/2020 06:38:25 -0.01, -75.25 -0.00, -75.35 10.73 80
8 06/23/2020 06:23:33 -0.00, -75.28 -0.61, -72.39 328.66 80
9 06/23/2020 18:44:57 0.00, -75.29 -0.48, -77.58 260.42 80
10 06/25/2020 18:35:25 0.00, -75.32 0.13, -74.62 79.48 80




NCC Satellite Simultaneous Nadir Overpasses (SNOs) Prediction Service
